TimeEST,TemperatureF,Dew PointF,Humidity,Sea Level PressureIn,VisibilityMPH,Wind Direction,Wind SpeedMPH,Gust SpeedMPH,PrecipitationIn,Events,Conditions,WindDirDegrees,DateUTC
12:51 AM,28.9,21.9,75,30.36,10.0,NE,5.8,-,N/A,,Mostly Cloudy,40,2012-12-06 05:51:00
1:04 AM,28.4,21.2,74,30.31,10.0,NNE,5.8,-,N/A,,Mostly Cloudy,30,2012-12-06 06:04:00
1:51 AM,28.0,21.0,75,30.35,10.0,NNE,4.6,-,N/A,,Mostly Cloudy,30,2012-12-06 06:51:00
2:51 AM,27.0,21.0,78,30.36,10.0,Calm,Calm,-,N/A,,Mostly Cloudy,0,2012-12-06 07:51:00
3:51 AM,23.0,19.9,88,30.34,10.0,ESE,3.5,-,N/A,,Scattered Clouds,110,2012-12-06 08:51:00
4:51 AM,24.1,19.0,81,30.34,10.0,Calm,Calm,-,N/A,,Clear,0,2012-12-06 09:51:00
5:51 AM,25.0,19.9,81,30.35,10.0,Calm,Calm,-,N/A,,Scattered Clouds,0,2012-12-06 10:51:00
6:51 AM,23.0,19.0,85,30.32,10.0,East,6.9,-,N/A,,Mostly Cloudy,90,2012-12-06 11:51:00
7:51 AM,24.1,19.9,84,30.30,10.0,ESE,6.9,-,N/A,,Mostly Cloudy,120,2012-12-06 12:51:00
8:51 AM,27.0,19.9,75,30.30,10.0,ESE,5.8,-,N/A,,Mostly Cloudy,120,2012-12-06 13:51:00
9:51 AM,28.9,21.0,72,30.29,10.0,SE,10.4,-,N/A,,Mostly Cloudy,140,2012-12-06 14:51:00
10:51 AM,32.0,21.9,66,30.26,10.0,ESE,9.2,-,N/A,,Mostly Cloudy,120,2012-12-06 15:51:00
11:51 AM,35.1,23.0,61,30.21,10.0,ESE,6.9,-,N/A,,Overcast,120,2012-12-06 16:51:00
12:51 PM,37.0,23.0,57,30.18,10.0,SE,5.8,-,N/A,,Overcast,130,2012-12-06 17:51:00
1:51 PM,39.9,24.1,53,30.14,10.0,Variable,3.5,-,N/A,,Overcast,0,2012-12-06 18:51:00
2:51 PM,42.1,24.1,49,30.12,10.0,SSE,3.5,-,N/A,,Overcast,150,2012-12-06 19:51:00
3:51 PM,42.1,25.0,51,30.10,10.0,SE,5.8,-,N/A,,Overcast,130,2012-12-06 20:51:00
4:51 PM,39.9,23.0,51,30.11,10.0,SSE,8.1,-,N/A,,Mostly Cloudy,160,2012-12-06 21:51:00
5:51 PM,37.9,23.0,55,30.10,10.0,SSE,4.6,-,N/A,,Overcast,150,2012-12-06 22:51:00
6:51 PM,37.0,23.0,57,30.10,10.0,SSE,4.6,-,N/A,,Mostly Cloudy,150,2012-12-06 23:51:00
7:51 PM,37.9,23.0,55,30.09,10.0,SE,4.6,-,N/A,,Overcast,130,2012-12-07 00:51:00
8:51 PM,37.0,23.0,57,30.08,10.0,SSE,4.6,-,N/A,,Overcast,150,2012-12-07 01:51:00
9:51 PM,37.9,24.1,57,30.06,10.0,SSE,5.8,-,N/A,,Mostly Cloudy,150,2012-12-07 02:51:00
10:51 PM,39.0,24.1,55,30.04,10.0,SE,5.8,-,N/A,,Mostly Cloudy,140,2012-12-07 03:51:00
11:51 PM,39.0,24.1,55,30.04,10.0,SSE,5.8,-,N/A,,Mostly Cloudy,160,2012-12-07 04:51:00